When you browse on this site, cookies collect data to enhance your experience and personalize the content and advertising you see.
Visit our Privacy Policy to learn more. By continuing to use the site, you agree to this use of cookies and data.
  • en Belgique
  • Liste des pays
  • À 7 jours
  • Température de l'eau
  • Carte satellitaire
  • Carte météo
  • Widgets météo
  • user-avatar
    Se connecter

    Météo par heure à Djelfa

    Ce jour, 21 Novembre, Mercredi

    Heure Température Précipitation Vent Pression Humidité
    00:00 +8°C° 0 mm 5 m/s 663 mmHg 67%
    01:00 +7°C° 0 mm 5 m/s 663 mmHg 69%
    02:00 +7°C° 0 mm 5 m/s 663 mmHg 71%
    03:00 +7°C° 0 mm 5 m/s 662 mmHg 73%
    04:00 +6°C° 0 mm 5 m/s 663 mmHg 73%
    05:00 +6°C° 0 mm 5 m/s 663 mmHg 74%
    06:00 +6°C° 0 mm 5 m/s 663 mmHg 74%
    07:00 +8°C° 0 mm 5 m/s 664 mmHg 67%
    08:00 +9°C° 0 mm 5 m/s 665 mmHg 60%
    09:00 +11°C° 0 mm 6 m/s 665 mmHg 53%
    10:00 +13°C° 0 mm 5 m/s 666 mmHg 47%
    11:00 +14°C° 0 mm 5 m/s 666 mmHg 42%
    12:00 +15°C° 0 mm 5 m/s 666 mmHg 36%
    13:00 +16°C° 0 mm 5 m/s 666 mmHg 35%
    14:00 +16°C° 0 mm 5 m/s 666 mmHg 33%
    15:00 +16°C° 0 mm 5 m/s 665 mmHg 32%
    16:00 +15°C° 0 mm 5 m/s 665 mmHg 35%
    17:00 +14°C° 0 mm 4 m/s 665 mmHg 37%
    18:00 +13°C° 0 mm 4 m/s 665 mmHg 40%
    19:00 +12°C° 0 mm 4 m/s 666 mmHg 41%
    20:00 +12°C° 0 mm 3 m/s 666 mmHg 41%
    21:00 +11°C° 0 mm 3 m/s 666 mmHg 42%
    22:00 +11°C° 0 mm 3 m/s 666 mmHg 41%
    23:00 +11°C° 0 mm 3 m/s 666 mmHg 41%

    Demain, 22 Novembre, Jeudi

    Heure Température Précipitation Vent Pression Humidité
    00:00 +10°C° 0 mm 3 m/s 666 mmHg 40%
    01:00 +10°C° 0 mm 3 m/s 666 mmHg 41%
    02:00 +10°C° 0 mm 3 m/s 666 mmHg 41%
    03:00 +9°C° 0 mm 3 m/s 665 mmHg 41%
    04:00 +9°C° 0 mm 3 m/s 665 mmHg 42%
    05:00 +9°C° 0 mm 2 m/s 665 mmHg 43%
    06:00 +8°C° 0 mm 2 m/s 665 mmHg 44%
    07:00 +10°C° 0 mm 3 m/s 666 mmHg 41%
    08:00 +11°C° 0 mm 3 m/s 666 mmHg 37%
    09:00 +12°C° 0 mm 4 m/s 667 mmHg 34%
    10:00 +13°C° 0 mm 5 m/s 667 mmHg 31%
    11:00 +14°C° 0 mm 6 m/s 667 mmHg 29%
    12:00 +15°C° 0 mm 7 m/s 667 mmHg 26%
    13:00 +15°C° 0 mm 7 m/s 666 mmHg 26%
    14:00 +15°C° 0 mm 7 m/s 666 mmHg 26%
    15:00 +15°C° 0 mm 7 m/s 666 mmHg 25%
    16:00 +14°C° 0 mm 7 m/s 666 mmHg 28%
    17:00 +13°C° 0 mm 6 m/s 665 mmHg 31%
    18:00 +12°C° 0 mm 5 m/s 665 mmHg 34%
    19:00 +10°C° 0 mm 5 m/s 666 mmHg 35%
    20:00 +10°C° 0 mm 5 m/s 666 mmHg 36%
    21:00 +10°C° 0 mm 5 m/s 666 mmHg 38%
    22:00 +9°C° 0 mm 5 m/s 666 mmHg 39%
    23:00 +9°C° 0 mm 5 m/s 666 mmHg 40%

    Après-demain, 23 Novembre, Vendredi

    Heure Température Précipitation Vent Pression Humidité
    00:00 +8°C° 0 mm 5 m/s 666 mmHg 42%
    01:00 +8°C° 0 mm 4 m/s 665 mmHg 43%
    02:00 +8°C° 0 mm 4 m/s 665 mmHg 45%
    03:00 +8°C° 0 mm 3 m/s 665 mmHg 47%
    04:00 +8°C° 0 mm 3 m/s 665 mmHg 49%
    05:00 +8°C° 0 mm 3 m/s 665 mmHg 51%
    06:00 +8°C° 0 mm 3 m/s 665 mmHg 53%
    07:00 +8°C° 0 mm 4 m/s 665 mmHg 50%
    08:00 +11°C° 0 mm 4 m/s 666 mmHg 46%
    09:00 +12°C° 0 mm 5 m/s 667 mmHg 43%
    10:00 +13°C° 0 mm 5 m/s 667 mmHg 40%
    11:00 +15°C° 0 mm 6 m/s 667 mmHg 37%
    12:00 +16°C° 0 mm 6 m/s 667 mmHg 34%
    13:00 +16°C° 0 mm 6 m/s 666 mmHg 33%
    14:00 +16°C° 0 mm 5 m/s 666 mmHg 33%
    15:00 +16°C° 0 mm 5 m/s 666 mmHg 32%
    16:00 +15°C° 0 mm 4 m/s 666 mmHg 36%
    17:00 +14°C° 0 mm 3 m/s 666 mmHg 39%
    18:00 +14°C° 0 mm 2 m/s 665 mmHg 42%
    19:00 +13°C° 0 mm 3 m/s 666 mmHg 43%
    20:00 +12°C° 0 mm 3 m/s 666 mmHg 44%
    21:00 +12°C° 0 mm 3 m/s 666 mmHg 44%
    22:00 +12°C° 0 mm 3 m/s 666 mmHg 45%
    23:00 +11°C° 0 mm 3 m/s 666 mmHg 46%

    24 Novembre, Samedi

    Heure Température Précipitation Vent Pression Humidité
    00:00 +11°C° 0 mm 3 m/s 666 mmHg 46%
    01:00 +12°C° 0 mm 2 m/s 665 mmHg 47%
    02:00 +12°C° 0 mm 2 m/s 665 mmHg 48%
    03:00 +12°C° 0 mm 2 m/s 665 mmHg 49%
    04:00 +12°C° 0.1 mm 2 m/s 665 mmHg 50%
    05:00 +12°C° 0.1 mm 2 m/s 665 mmHg 51%
    06:00 +12°C° 0.1 mm 2 m/s 665 mmHg 53%
    07:00 +11°C° 0 mm 3 m/s 665 mmHg 52%
    08:00 +12°C° 0 mm 4 m/s 665 mmHg 51%
    09:00 +13°C° 0 mm 5 m/s 666 mmHg 50%
    10:00 +13°C° 0.1 mm 5 m/s 665 mmHg 52%
    11:00 +13°C° 0.1 mm 5 m/s 665 mmHg 53%
    12:00 +14°C° 0.1 mm 5 m/s 665 mmHg 55%
    13:00 +13°C° 0.6 mm 5 m/s 664 mmHg 62%
    14:00 +12°C° 0.6 mm 4 m/s 664 mmHg 68%
    15:00 +11°C° 0.6 mm 4 m/s 663 mmHg 75%
    16:00 +11°C° 0.8 mm 4 m/s 663 mmHg 79%
    17:00 +10°C° 0.8 mm 3 m/s 663 mmHg 82%
    18:00 +10°C° 0.8 mm 3 m/s 663 mmHg 86%
    19:00 +10°C° 1.1 mm 3 m/s 663 mmHg 87%
    20:00 +10°C° 1.1 mm 3 m/s 663 mmHg 88%
    21:00 +8°C° 1.1 mm 4 m/s 664 mmHg 89%
    22:00 +8°C° 0.4 mm 4 m/s 663 mmHg 89%
    23:00 +8°C° 0.4 mm 4 m/s 663 mmHg 89%

    25 Novembre, Dimanche

    Heure Température Précipitation Vent Pression Humidité
    00:00 +8°C° 0.4 mm 4 m/s 663 mmHg 90%
    01:00 +8°C° 0.1 mm 5 m/s 663 mmHg 88%
    02:00 +6°C° 0.1 mm 7 m/s 663 mmHg 86%
    03:00 +6°C° 0.1 mm 8 m/s 662 mmHg 84%
    04:00 +6°C° 0 mm 7 m/s 663 mmHg 83%
    05:00 +5°C° 0 mm 7 m/s 663 mmHg 82%
    06:00 +5°C° 0 mm 7 m/s 663 mmHg 81%
    07:00 +6°C° 0 mm 7 m/s 663 mmHg 75%
    08:00 +6°C° 0 mm 8 m/s 664 mmHg 68%
    09:00 +7°C° 0 mm 8 m/s 664 mmHg 62%
    10:00 +9°C° 0 mm 8 m/s 664 mmHg 59%
    11:00 +10°C° 0 mm 9 m/s 664 mmHg 57%
    12:00 +11°C° 0 mm 9 m/s 664 mmHg 54%
    13:00 +11°C° 0 mm 9 m/s 664 mmHg 54%
    14:00 +11°C° 0 mm 9 m/s 664 mmHg 54%
    15:00 +12°C° 0 mm 9 m/s 664 mmHg 54%
    16:00 +11°C° 0 mm 8 m/s 664 mmHg 58%
    17:00 +10°C° 0 mm 7 m/s 664 mmHg 62%
    18:00 +9°C° 0 mm 7 m/s 664 mmHg 66%
    19:00 +9°C° 0 mm 6 m/s 664 mmHg 70%
    20:00 +9°C° 0 mm 5 m/s 664 mmHg 73%
    21:00 +8°C° 0 mm 5 m/s 665 mmHg 76%
    22:00 +8°C° 0 mm 5 m/s 664 mmHg 78%
    23:00 +7°C° 0 mm 4 m/s 664 mmHg 79%

    26 Novembre, Lundi

    Heure Température Précipitation Vent Pression Humidité
    00:00 +7°C° 0 mm 4 m/s 664 mmHg 81%
    01:00 +7°C° 0 mm 4 m/s 664 mmHg 81%
    02:00 +7°C° 0 mm 4 m/s 664 mmHg 82%
    03:00 +7°C° 0 mm 4 m/s 664 mmHg 82%
    04:00 +6°C° 0 mm 5 m/s 664 mmHg 82%
    05:00 +6°C° 0 mm 5 m/s 664 mmHg 82%
    06:00 +6°C° 0 mm 5 m/s 664 mmHg 82%
    07:00 +7°C° 0 mm 6 m/s 665 mmHg 78%
    08:00 +9°C° 0 mm 7 m/s 665 mmHg 74%
    09:00 +10°C° 0 mm 7 m/s 666 mmHg 70%
    10:00 +11°C° 0 mm 7 m/s 666 mmHg 68%
    11:00 +12°C° 0 mm 7 m/s 666 mmHg 66%
    12:00 +12°C° 0 mm 7 m/s 666 mmHg 64%
    13:00 +14°C° 0 mm 6 m/s 666 mmHg 63%
    14:00 +14°C° 0 mm 6 m/s 665 mmHg 63%
    15:00 +14°C° 0 mm 6 m/s 665 mmHg 63%
    16:00 +13°C° 0 mm 5 m/s 665 mmHg 67%
    17:00 +12°C° 0 mm 5 m/s 665 mmHg 72%
    18:00 +11°C° 0 mm 4 m/s 665 mmHg 76%
    19:00 +11°C° 0 mm 4 m/s 665 mmHg 78%
    20:00 +10°C° 0 mm 4 m/s 666 mmHg 80%
    21:00 +10°C° 0 mm 4 m/s 666 mmHg 82%
    22:00 +9°C° 0.1 mm 5 m/s 666 mmHg 84%
    23:00 +9°C° 0.1 mm 5 m/s 666 mmHg 85%
    Voir plus